GSAT0222 (GALILEO 26) (43565 NORAD) Tracking and Keplerian Element Data

This shows tracking and keplerian element data for the satellite.

Feedback or suggestion? Click here.




ElementValue
Catalog43565
NameGSAT0222 (GALILEO 26)
Epoch Orbit4070
Epoch Day34.09984423
Epoch Year2025
RAAN355.2497
Inclination57.2942
Eccentricity0.0005008
Argument of Perigee275.733
Mean Anonmoly84.2016
Mean Motion1.70475063
Decay Rate-8.1E-07
L11 43565U 18060B 25034.09984423 -.00000081 00000+0 00000+0 0 9999
L22 43565 57.2942 355.2497 0005008 275.7330 84.2016 1.70475063 40704



Live tracking and technical data element details for GSAT0222 (GALILEO 26) (NORAD 43565). GSAT0222 (GALILEO 26) can be tracked NOW for your location showing map with azimuth and elevation plus other details from your city location.







IsCatalogInMostPopularTable: catalog: 43565, numindb: 604
Update: records affected: 1



GetName: 43565 GSAT0222 (GALILEO 26)

Hit Count: updated at: Fri, 16 May 2025 11:18:30 GMT